Voltar ao catálogo

FENGYUN 1C DEB

AtivoSSO
NORAD 36280·DEBRIS·🇨🇳 China

Lançado May 10, 1999 de Taiyuan Satellite Launch Center

Loading…

Próximas Passagens (próximas 24 horas)

TLE

EnvelhecendoSource: Space-Track

Época: Sep 10, 2026, 08:08 UTC

1 36280U 99025DXH 26253.33934377  .00000803  00000-0  46704-3 0  9996
2 36280  98.7454 280.1099 0062262  17.4565 355.8108 14.10480605901822

Acompanhe FENGYUN 1C DEB em tempo real com AllMySat

Download on the App Store